Location: McFarlands Corners
(41.4117°N, 81.3382°W)
Time: 14:26:37
(UTC+00:00)

A-11 Canister half - Pass Details

Date: 18 February 2026
Orbit: 1513 x 1687 km, 47.2° (Epoch: 11 March)

Event Time Altitude Azimuth Distance (km) Brightness Sun altitude
Rises 11:05:25 0° 286° (WNW) 4,793 - -13.9°
Reaches altitude 10° 11:11:13 10° 260° (W) 3,760 - -12.8°
Exits shadow 11:12:39 11° 251° (WSW) 3,631 10.4 -12.6°
Maximum altitude 11:14:27 12° 239° (WSW) 3,562 10.4 -12.2°
Drops below altitude 10° 11:17:40 10° 218° (SW) 3,711 10.7 -11.6°
Sets 11:23:21 0° 191° (S) 4,659 11.5 -10.6°
